Time,TemperatureF,DewpointF,PressureIn,WindDirection,WindDirectionDegrees,WindSpeedMPH,WindSpeedGustMPH,Humidity,HourlyPrecipIn,Conditions,Clouds,dailyrainin,SoftwareType,DateUTC
2013-02-04 00:02:00,46.0,28.0,-100.00,SW,215,14.0,24.0,48,-99.99,,,-99.99,,2013-02-04 06:02:00,
2013-02-04 00:11:00,45.0,27.0,-100.00,South,190,11.0,18.0,50,-99.99,,,-99.99,,2013-02-04 06:11:00,
2013-02-04 00:32:00,47.0,28.0,-100.00,SW,215,17.0,29.0,47,-99.99,,,-99.99,,2013-02-04 06:32:00,
2013-02-04 00:42:00,47.0,28.0,-100.00,SW,215,21.0,33.0,47,-99.99,,,-99.99,,2013-02-04 06:42:00,
2013-02-04 01:11:00,47.0,28.0,-100.00,SSW,210,19.0,29.0,47,-99.99,,,-99.99,,2013-02-04 07:11:00,
2013-02-04 01:42:00,47.0,27.0,-100.00,SW,220,16.0,24.0,47,-99.99,,,-99.99,,2013-02-04 07:42:00,
2013-02-04 02:01:00,47.0,28.0,-100.00,SW,215,19.0,29.0,47,-99.99,,,-99.99,,2013-02-04 08:01:00,
2013-02-04 02:02:00,46.0,28.0,-100.00,SW,220,18.0,26.0,48,-99.99,,,-99.99,,2013-02-04 08:02:00,
2013-02-04 02:11:00,47.0,28.0,-100.00,SW,220,16.0,24.0,47,-99.99,,,-99.99,,2013-02-04 08:11:00,
2013-02-04 02:31:00,47.0,27.0,-100.00,SW,225,16.0,26.0,47,-99.99,,,-99.99,,2013-02-04 08:31:00,
2013-02-04 02:32:00,47.0,28.0,-100.00,SW,220,16.0,24.0,48,-99.99,,,-99.99,,2013-02-04 08:32:00,
2013-02-04 02:42:00,47.0,28.0,-100.00,WSW,240,14.0,24.0,48,-99.99,,,-99.99,,2013-02-04 08:42:00,
2013-02-04 02:52:00,46.0,28.0,-100.00,SW,220,18.0,26.0,48,-99.99,,,-99.99,,2013-02-04 08:52:00,
2013-02-04 03:11:00,46.0,28.0,-100.00,SSW,205,16.0,23.0,48,-99.99,,,-99.99,,2013-02-04 09:11:00,
2013-02-04 03:32:00,45.0,27.0,-100.00,West,270,10.0,14.0,50,-99.99,,,-99.99,,2013-02-04 09:32:00,
2013-02-04 03:52:00,46.0,27.0,-100.00,WNW,290,12.0,19.0,48,-99.99,,,-99.99,,2013-02-04 09:52:00,
2013-02-04 04:01:00,46.0,27.0,-100.00,WNW,290,12.0,19.0,48,-99.99,,,-99.99,,2013-02-04 10:01:00,
2013-02-04 04:02:00,43.0,27.0,-100.00,WSW,250,9.0,12.0,52,-99.99,,,-99.99,,2013-02-04 10:02:00,
2013-02-04 04:11:00,46.0,28.0,-100.00,WSW,250,14.0,18.0,49,-99.99,,,-99.99,,2013-02-04 10:11:00,
2013-02-04 04:32:00,42.0,27.0,-100.00,WSW,255,8.0,9.0,54,-99.99,,,-99.99,,2013-02-04 10:32:00,
2013-02-04 04:41:00,44.0,27.0,-100.00,West,265,9.0,11.0,50,-99.99,,,-99.99,,2013-02-04 10:41:00,
2013-02-04 04:42:00,43.0,27.0,-100.00,WSW,245,9.0,9.0,54,-99.99,,,-99.99,,2013-02-04 10:42:00,
2013-02-04 05:02:00,42.0,27.0,-100.00,WSW,250,9.0,10.0,54,-99.99,,,-99.99,,2013-02-04 11:02:00,
2013-02-04 05:11:00,43.0,26.0,-100.00,WSW,245,9.0,11.0,52,-99.99,,,-99.99,,2013-02-04 11:11:00,
2013-02-04 05:12:00,42.0,27.0,-100.00,WSW,240,9.0,10.0,54,-99.99,,,-99.99,,2013-02-04 11:12:00,
2013-02-04 05:32:00,41.0,26.0,-100.00,WSW,250,9.0,9.0,55,-99.99,,,-99.99,,2013-02-04 11:32:00,
2013-02-04 05:42:00,42.0,27.0,-100.00,WSW,255,9.0,10.0,55,-99.99,,,-99.99,,2013-02-04 11:42:00,
2013-02-04 05:52:00,42.0,27.0,-100.00,WSW,250,9.0,10.0,54,-99.99,,,-99.99,,2013-02-04 11:52:00,
2013-02-04 06:32:00,40.0,26.0,-100.00,West,260,10.0,11.0,58,-99.99,,,-99.99,,2013-02-04 12:32:00,
2013-02-04 06:42:00,40.0,27.0,-100.00,West,265,11.0,13.0,58,-99.99,,,-99.99,,2013-02-04 12:42:00,
2013-02-04 07:02:00,42.0,29.0,-100.00,NW,310,10.0,15.0,58,-99.99,,,-99.99,,2013-02-04 13:02:00,
2013-02-04 07:12:00,42.0,28.0,-100.00,NW,310,13.0,17.0,58,-99.99,,,-99.99,,2013-02-04 13:12:00,
2013-02-04 07:32:00,40.0,27.0,-100.00,NNW,340,13.0,20.0,60,-99.99,,,-99.99,,2013-02-04 13:32:00,
2013-02-04 07:42:00,39.0,27.0,-100.00,North,355,13.0,21.0,61,-99.99,,,-99.99,,2013-02-04 13:42:00,
2013-02-04 08:32:00,39.0,28.0,-100.00,NNW,345,14.0,21.0,65,-99.99,,,-99.99,,2013-02-04 14:32:00,
2013-02-04 09:12:00,39.0,28.0,-100.00,NNW,345,14.0,21.0,65,-99.99,,,-99.99,,2013-02-04 15:12:00,
2013-02-04 09:23:00,39.0,28.0,-100.00,NNW,345,14.0,21.0,65,-99.99,,,-99.99,,2013-02-04 15:23:00,
2013-02-04 09:43:00,39.0,29.0,-100.00,North,0,13.0,24.0,66,-99.99,,,-99.99,,2013-02-04 15:43:00,
2013-02-04 09:53:00,39.0,29.0,-100.00,North,0,13.0,24.0,66,-99.99,,,-99.99,,2013-02-04 15:53:00,
2013-02-04 11:22:00,39.0,29.0,-100.00,North,0,20.0,26.0,66,-99.99,,,-99.99,,2013-02-04 17:22:00,
2013-02-04 12:03:00,40.0,30.0,-100.00,North,0,16.0,26.0,66,-99.99,,,-99.99,,2013-02-04 18:03:00,
2013-02-04 12:11:00,39.0,29.0,-100.00,North,0,20.0,26.0,66,-99.99,,,-99.99,,2013-02-04 18:11:00,
2013-02-04 12:31:00,35.0,26.0,-100.00,North,350,16.0,23.0,69,-99.99,,,-99.99,,2013-02-04 18:31:00,
2013-02-04 12:32:00,39.0,28.0,-100.00,North,350,14.0,24.0,66,-99.99,,,-99.99,,2013-02-04 18:32:00,
2013-02-04 13:02:00,36.0,27.0,-100.00,North,0,15.0,26.0,69,-99.99,,,-99.99,,2013-02-04 19:02:00,
2013-02-04 13:11:00,36.0,27.0,-100.00,North,0,15.0,26.0,69,-99.99,,,-99.99,,2013-02-04 19:11:00,
2013-02-04 13:42:00,36.0,27.0,-100.00,North,355,13.0,20.0,69,-99.99,,,-99.99,,2013-02-04 19:42:00,
2013-02-04 13:52:00,36.0,27.0,-100.00,North,355,13.0,20.0,69,-99.99,,,-99.99,,2013-02-04 19:52:00,
2013-02-04 14:02:00,35.0,26.0,-100.00,NNW,345,14.0,20.0,69,-99.99,,,-99.99,,2013-02-04 20:02:00,
2013-02-04 14:12:00,35.0,26.0,-100.00,North,355,16.0,24.0,69,-99.99,,,-99.99,,2013-02-04 20:12:00,
2013-02-04 14:22:00,35.0,26.0,-100.00,North,355,16.0,24.0,69,-99.99,,,-99.99,,2013-02-04 20:22:00,
2013-02-04 14:31:00,36.0,27.0,-100.00,North,355,14.0,19.0,68,-99.99,,,-99.99,,2013-02-04 20:31:00,
2013-02-04 14:42:00,36.0,26.0,-100.00,North,350,14.0,19.0,68,-99.99,,,-99.99,,2013-02-04 20:42:00,
2013-02-04 15:02:00,36.0,26.0,-100.00,NNW,345,16.0,20.0,68,-99.99,,,-99.99,,2013-02-04 21:02:00,
2013-02-04 15:11:00,35.0,26.0,-100.00,NNW,345,11.0,19.0,69,-99.99,,,-99.99,,2013-02-04 21:11:00,
2013-02-04 15:31:00,36.0,26.0,-100.00,NNW,345,14.0,16.0,68,-99.99,,,-99.99,,2013-02-04 21:31:00,
2013-02-04 15:42:00,35.0,26.0,-100.00,North,10,13.0,17.0,68,-99.99,,,-99.99,,2013-02-04 21:42:00,
2013-02-04 16:01:00,36.0,27.0,-100.00,NNW,345,12.0,16.0,68,-99.99,,,-99.99,,2013-02-04 22:01:00,
2013-02-04 16:11:00,35.0,26.0,-100.00,NNW,340,9.0,16.0,68,-99.99,,,-99.99,,2013-02-04 22:11:00,
2013-02-04 16:31:00,35.0,26.0,-100.00,North,350,9.0,15.0,69,-99.99,,,-99.99,,2013-02-04 22:31:00,
2013-02-04 17:11:00,35.0,26.0,-100.00,NNE,15,6.0,9.0,69,-99.99,,,-99.99,,2013-02-04 23:11:00,
2013-02-04 17:31:00,35.0,25.0,-100.00,NNE,15,5.0,8.0,69,-99.99,,,-99.99,,2013-02-04 23:31:00,
2013-02-04 17:41:00,34.0,25.0,-100.00,NNE,15,5.0,7.0,69,-99.99,,,-99.99,,2013-02-04 23:41:00,
2013-02-04 18:31:00,31.0,24.0,-100.00,NE,50,5.0,7.0,73,-99.99,,,-99.99,,2013-02-05 00:31:00,
2013-02-04 18:41:00,31.0,24.0,-100.00,NE,55,6.0,8.0,74,-99.99,,,-99.99,,2013-02-05 00:41:00,
2013-02-04 19:11:00,29.0,23.0,-100.00,NE,35,7.0,9.0,76,-99.99,,,-99.99,,2013-02-05 01:11:00,
2013-02-04 19:31:00,29.0,23.0,-100.00,NE,55,6.0,8.0,78,-99.99,,,-99.99,,2013-02-05 01:31:00,
2013-02-04 19:41:00,28.0,23.0,-100.00,NE,45,6.0,8.0,79,-99.99,,,-99.99,,2013-02-05 01:41:00,
2013-02-04 20:01:00,28.0,23.0,-100.00,NE,50,6.0,8.0,81,-99.99,,,-99.99,,2013-02-05 02:01:00,
2013-02-04 20:11:00,28.0,23.0,-100.00,ENE,60,5.0,7.0,81,-99.99,,,-99.99,,2013-02-05 02:11:00,
2013-02-04 20:31:00,28.0,23.0,-100.00,ENE,65,5.0,7.0,83,-99.99,,,-99.99,,2013-02-05 02:31:00,
2013-02-04 21:01:00,27.0,23.0,-100.00,ESE,120,4.0,5.0,85,-99.99,,,-99.99,,2013-02-05 03:01:00,
2013-02-04 21:11:00,26.0,22.0,-100.00,East,95,4.0,5.0,85,-99.99,,,-99.99,,2013-02-05 03:11:00,
2013-02-04 21:31:00,27.0,23.0,-100.00,East,80,4.0,6.0,87,-99.99,,,-99.99,,2013-02-05 03:31:00,
2013-02-04 21:41:00,26.0,23.0,-100.00,East,85,2.0,4.0,87,-99.99,,,-99.99,,2013-02-05 03:41:00,
2013-02-04 21:42:00,27.0,23.0,-100.00,ESE,120,4.0,5.0,85,-99.99,,,-99.99,,2013-02-05 03:42:00,
2013-02-04 21:52:00,27.0,23.0,-100.00,ESE,120,4.0,5.0,85,-99.99,,,-99.99,,2013-02-05 03:52:00,
2013-02-04 22:31:00,25.0,22.0,-100.00,SW,215,3.0,4.0,90,-99.99,,,-99.99,,2013-02-05 04:31:00,
2013-02-04 22:41:00,25.0,23.0,-100.00,South,180,4.0,4.0,91,-99.99,,,-99.99,,2013-02-05 04:41:00,
2013-02-04 23:11:00,26.0,24.0,-100.00,SSE,155,6.0,6.0,92,-99.99,,,-99.99,,2013-02-05 05:11:00,
2013-02-04 23:31:00,25.0,24.0,-100.00,SSE,165,6.0,7.0,93,-99.99,,,-99.99,,2013-02-05 05:31:00,
2013-02-04 23:41:00,25.0,23.0,-100.00,SSE,155,6.0,8.0,93,-99.99,,,-99.99,,2013-02-05 05:41:00,